Location: Gniazdowice
(50.2124°N, 20.2673°E)
Time: 02:03:58
(UTC+00:00)

ALOS - Pass Details

Date: 23 May 2024
Orbit: 672 x 676 km, 98.0° (Epoch: 18 June)

Event Time Altitude Azimuth Distance (km) Brightness Sun altitude
Rises 01:20:26 0° 16° (NNE) 3,040 7.0 -10.4°
Reaches altitude 10° 01:22:42 10° 19° (NNE) 2,121 6.1 -10.1°
Maximum altitude 01:27:19 65° 101° (ESE) 746 2.6 -9.7°
Drops below altitude 10° 01:31:53 10° 184° (S) 2,102 4.3 -9.2°
Enters shadow 01:32:42 - 186° (S) 2,435 4.6 -9.1°
